Regional Weather Roundup
Issued by NWS Green Bay, WI

Home | Current Version | Previous Version | Graphics & Text | Print | Product List | Glossary Off
Versions: 1 2 3 4 5 6 7 8 9 10 11 12 13 14 15 16 17 18 19 20 21 22 23 24 25 26 27 28 29 30 31 32 33 34 35 36 37 38 39 40 41 42 43 44 45 46 47 48 49 50

000
ASUS43 KGRB 300159
RWRGRB

NORTH-CENTRAL AND NORTHEAST WISCONSIN REGIONAL WEATHER ROUNDUP
NATIONAL WEATHER SERVICE GREEN BAY WI
900 PM CDT FRI AUG 29 2014

WIZ005-009-010>012-018-019-300300-
NORTH CENTRAL WISCONSIN

CITY           SKY/WX    TMP DP  RH WIND       PRES   REMARKS
IRONWOOD       NOT AVBL
MANITOWISH WTR NOT AVBL
ARBOR VITAE    NOT AVBL
EAGLE RIVER    NOT AVBL
LAND O LAKES   NOT AVBL
RHINELANDER    LGT RAIN  64  63  96 S3        29.85S
PHILLIPS       NOT AVBL
ANTIGO         NOT AVBL
TOMAHAWK       NOT AVBL
MERRILL        NOT AVBL
$$

WIZ013-073-300300-
NORTHEAST WISCONSIN

CITY           SKY/WX    TMP DP  RH WIND       PRES   REMARKS
IRON MOUNTAIN  LGT RAIN  68  65  90 SW5       29.82R FOG
MARINETTE      CLOUDY    72  66  83 S7        29.82R
$$

WIZ017-030-035>037-045-300300-
CENTRAL WISCONSIN

CITY           SKY/WX    TMP DP  RH WIND       PRES   REMARKS
MEDFORD        NOT AVBL
WAUSAU         LGT RAIN  66  64  93 N5        29.81F
MOSINEE        CLOUDY    68  64  88 W9        29.84
MARSHFIELD     RAIN      67  65  93 CALM      29.83R FOG
WISC RAPIDS    MOCLDY    76  70  82 W16G22    29.83R
STEVENS POINT  NOT AVBL
WAUPACA        NOT AVBL
SHAWANO        MOCLDY    78  69  74 CALM      29.81R
CLINTONVILLE   NOT AVBL
$$

WIZ038-039-048-051-300300-
FOX VALLEY

CITY           SKY/WX    TMP DP  RH WIND       PRES   REMARKS
NWS GREEN BAY  MOCLDY    73  71  93 S8        29.82S
APPLETON       MOCLDY    75  70  83 S9        29.83S
OSHKOSH        PTCLDY    75  71  87 S9        29.82S
FOND DU LAC    PTCLDY    75  70  84 S8        29.84R
$$

WIZ022-050-052-300300-
EAST CENTRAL WISCONSIN

CITY           SKY/WX    TMP DP  RH WIND       PRES   REMARKS
STURGEON BAY   CLOUDY    70  66  88 S16       29.84S
MANITOWOC      NOT AVBL
SHEBOYGAN      PTCLDY    73  69  87 S14G23    29.86S
$$

LMZ563-521-522-541>543-300300-
LAKESHORE

STATION/POSITION TIME  TEMP    WIND        PRES    VSBY  WAVE
                       AIR SEA DIR/SP/G                  HT/PER
                 (UTC) (F)     (DEG/KT/KT) (MB)    (MI)  (FT/S)
SHEBOYGAN LKSHOR 0100   69 68  180/ 14/ 14 1011.2S
KEWAUNEE LKSHORE 0100   66     180/ 13/ 15 1010.0R
NORTHPORT PIER   0100   68     160/  9/ 17 1010.2S
N MID LAKE BUOY  0100   68 65  190/ 14/ 17 1010.1F         4/ 6
SISTER BAY LKSHO 0100   70     180/ 23/ 29   N/A
CHAMBERS ISLAND  0100   71     140/  6/ 13 1009.8R
MENOMINEE LKSHOR 0100   70     170/  7/ 10 1010.0F
$$



USA.gov is the U.S. government's official web portal to all federal, state and local government web resources and services.